Huntington, WV

4:17 PM EST on December 06, 2019 (GMT -0500)
Tri-State / Ferguson

Weather History for KHTS - October, 2019

Change the Weather History Date:

Wednesday, October 23, 2019

  Actual Average Record
Temperature  
Mean Temperature 52 °F 54 °F  
Max Temperature 63 °F 66 °F 85 °F (1979)
Min Temperature 41 °F 43 °F 22 °F (1952)
Degree Days  
Heating Degree Days 13 11  
Month to date heating degree days 124 184  
Since 1 July heating degree days 124 242  
Cooling Degree Days 0 0  
Month to date cooling degree days 66 16  
Year to date cooling degree days 1511 1127  
Growing Degree Days 3 (Base 50)    
Moisture  
Dew Point 35 °F    
Average Humidity 55    
Maximum Humidity 82    
Minimum Humidity 27    
Precipitation  
Precipitation 0.00 in 0.09 in 1.60 in (2007)
Month to date precipitation 3.84 2.03  
Year to date precipitation 38.31 35.06  
Snow  
Snow 0.00 in 0.00 in 0.00 in (2016)
Month to date snowfall 0.0 0.0  
Since 1 September snowfall 0.0 0.0  
Snow Depth 0.00 in    
Sea Level Pressure  
Sea Level Pressure 30.13 in    
Wind  
Wind Speed 4 mph (SW)    
Max Wind Speed 14 mph    
Max Gust Speed 20 mph    
Visibility 10 miles    
Events      
T = Trace of Precipitation, MM = Missing Value Source: NWS Daily Summary

Daily Weather History Graph

Daily Weather History Graph

Search for Another Location

Airport or City:

Astronomy

Oct. 23, 2019 Rise Set
Actual Time 7:46 AM EDT 6:41 PM EDT
Civil Twilight 7:19 AM EDT 7:08 PM EDT
Nautical Twilight 6:49 AM EDT 7:39 PM EDT
Astronomical Twilight 6:18 AM EDT 8:10 PM EDT
Moon 2:09 AM EDT (10/23) 4:26 PM EDT (10/23)
Length of Visible Light 11h 48m
Length of Day
10h 54m
Waning Crescent, 27% of the Moon is Illuminated
Oct 23
Waning Crescent
Oct 27
New
Nov 4
First Quarter
Nov 12
Full
Nov 19
Last Quarter

Hourly Weather History & Observations

Time (EDT) Temp. Windchill Dew Point Humidity Pressure Visibility Wind Dir Wind Speed Gust Speed Precip Events Conditions
12:51 AM 54.0 °F - 39.0 °F 57% 29.96 in 10.0 mi West 8.1 mph - N/A   Partly Cloudy
1:51 AM 53.1 °F - 39.9 °F 61% 29.98 in 10.0 mi WSW 5.8 mph - N/A   Overcast
2:51 AM 50.0 °F - 39.0 °F 66% 29.99 in 10.0 mi SW 4.6 mph - N/A   Clear
3:51 AM 50.0 °F - 39.0 °F 66% 30.01 in 10.0 mi SSW 4.6 mph - N/A   Clear
4:51 AM 48.0 °F - 39.0 °F 71% 30.03 in 10.0 mi SW 5.8 mph - N/A   Clear
5:51 AM 46.0 °F 44.8 °F 37.9 °F 73% 30.05 in 10.0 mi SW 3.5 mph - N/A   Clear
6:51 AM 45.0 °F - 37.0 °F 74% 30.08 in 10.0 mi Calm Calm - N/A   Clear
7:51 AM 43.0 °F 41.3 °F 37.9 °F 82% 30.09 in 10.0 mi SSW 3.5 mph - N/A   Clear
8:51 AM 46.0 °F 43.9 °F 39.0 °F 76% 30.11 in 10.0 mi SW 4.6 mph - N/A   Clear
9:51 AM 52.0 °F - 37.0 °F 57% 30.14 in 10.0 mi Variable 5.8 mph - N/A   Clear
10:51 AM 55.0 °F - 35.1 °F 47% 30.17 in 10.0 mi WSW 10.4 mph - N/A   Clear
11:51 AM 57.0 °F - 30.9 °F 37% 30.19 in 10.0 mi WNW 8.1 mph - N/A   Clear
12:51 PM 60.1 °F - 32.0 °F 35% 30.19 in 10.0 mi Variable 6.9 mph - N/A   Clear
1:51 PM 60.1 °F - 30.9 °F 33% 30.17 in 10.0 mi West 9.2 mph - N/A   Clear
2:51 PM 62.1 °F - 30.0 °F 30% 30.16 in 10.0 mi Variable 4.6 mph - N/A   Clear
3:51 PM 62.1 °F - 28.9 °F 29% 30.16 in 10.0 mi SW 8.1 mph - N/A   Clear
4:51 PM 62.1 °F - 28.9 °F 29% 30.16 in 10.0 mi WSW 6.9 mph - N/A   Clear
5:51 PM 61.0 °F - 28.9 °F 30% 30.16 in 10.0 mi WSW 3.5 mph - N/A   Clear
6:51 PM 57.9 °F - 30.0 °F 35% 30.17 in 10.0 mi Calm Calm - N/A   Clear
7:51 PM 51.1 °F - 33.1 °F 50% 30.19 in 10.0 mi East 5.8 mph - N/A   Clear
8:51 PM 48.9 °F - 34.0 °F 56% 30.19 in 10.0 mi Calm Calm - N/A   Clear
9:51 PM 46.9 °F - 35.1 °F 63% 30.21 in 10.0 mi Calm Calm - N/A   Clear
10:51 PM 46.0 °F - 36.0 °F 68% 30.22 in 10.0 mi Calm Calm - N/A   Clear
11:51 PM 43.0 °F - 36.0 °F 76% 30.22 in 10.0 mi Calm Calm - N/A   Clear